THOR ABLESTAR DEB, 461

Orbit data source: Space-Track

THOR ABLESTAR DEB, 461 is space debris in LEO originally from a launch on Thu, 29 Jun 1961 UTC launched from the Air Force Eastern Test Range (AFETR). Debris objects in space refer to the collection of defunct objects orbiting the Earth. Examples of debris include non-operational satellites, rocket bodies, and fragments generated from explosions, collisions, or faulty payload assembly.

Loading next visibility...
Identifier
461, 1961-015EX
Orbit
LEO
Last TLE update
21 hours ago
Origin
Manufacturer
Unknown
Mission
Spacecraft
Bus & Motor
Unknown
Mass
Unknown
Launch date (UTC)
1961-06-29 (64 years ago)
Launch vehicle
Unknown
Launch site
Air Force Eastern Test Range (AFETR)
Object type
Payload
Rocket body
Debris
Shape & HBR
Unknown
Radar Cross Section
Medium (>0.1 m² and <1 m²)

Expand to show TLE details & history

TLE from 21 hours ago
0 THOR ABLESTAR DEB
1 00461U 61015EX  25185.85337991  .00012138  00000-0  11799-2 0  9994
2 00461  67.4995 352.1301 0031414 295.0320  64.7556 14.92436924333716
Epoch: 2025-07-04T20:28Z
TLE epoch observation values (Epoch: 2025-07-04T20:28:52.024Z)
Latitude
0.00003°
Longitude
121.81353°
Altitude
583.29 km
Speed
7.574 km/s
True Right ascension
23h 28m 31s
True Declination
0° 00' 00"
Sunlit
Object was in daylight at epoch
Visualization orbit readout
Latitude
-47.98875°
Longitude
92.1901°
Altitude
586.713 km
Speed
7.578 km/s
Apparent Right ascension
19h 13m 40s
Apparent Declination
-49° 01' 59"
Sunlit
Object is in full shadow
Visualization observer readout
Local Sidereal Time
05:04:29
Azimuth
237.456° WSW
Elevation
-65.449°
Doppler factor
1
Orbital elements
Apogee altitude
610.458 km
Perigee altitude
566.687 km
Semi-major axis
6,966.71 km
Eccentricity
0.00314
Inclination
67.4995°
RAAN
352.1301°
Arg. of periapsis
295.032°
True anomaly
Unknown
Mean anomaly
64.7556°
Eccentric anomaly
Unknown
Mean motion
3.73252 °/min
Orbital period
96.45 mins
BSTAR
0.0011799
Loading maneuver chart data...
Loading SW <> Apogee altitude chart data...

THOR ABLESTAR DEB Visibility forecast

Observer location: undefined°, undefined°

Span
Click to sort rows by Start time (UTC) header in descending order
Start Az.
Max El. time (UTC)
Max El. Az.
Max El.
End time (UTC)
End Az.
7 mins2025-07-05 21:08:10.312Z354.881° N2025-07-05 21:11:10.312Z41.414° NE26.248°2025-07-05 21:15:10.312Z114.05° SE
5 mins2025-07-05 22:48:10.312Z294.797° NW2025-07-05 22:50:10.312Z259.057° W23.461°2025-07-05 22:53:10.312Z203.499° SW
6 mins2025-07-06 12:51:10.312Z231.195° WSW2025-07-06 12:54:10.312Z324.954° NNW37.861°2025-07-06 12:57:10.312Z15.829° NNE
|